星链-3740 (STARLINK-3740 )

导读

STARLINK-3740是美国太空探索技术公司SpaceX星链星座的一员,于2022年4月21日发射升空。星链项目旨在构建全球卫星互联网星座,为全球偏远地区及网络不发达区域提供高速互联网接入服务,该卫星加入星座后,进一步拓展了星链网络的覆盖范围与服务能力。

基本信息
目录编号:
52265
目录名称:
STARLINK-3740
国际标识:
2022-041E
轨道中心:
EARTH
卫星名称:
星链-3740
卫星全名:
星链-3740 (STARLINK-3740 )
卫星状态:
在轨 (已飞行1598 天)
发射日期:
2022-04-21 UTC
国别 :
美国 (US)
星等 :
--
轨道信息
数据来源 国际轨道数据
星历时间: 2026-09-04T22:48:52+0800
23小时前
查看轨道信息
半长轴: 6840.881km
偏心率: 0.0000755
轨道倾角: 53.162°
近地点辐角 72.014°
升交点赤经 14.077°
平近点角 288.095°
近地点: 462.227km
远地点: 463.261km
周期: 93.849分钟
每日圈数: 15.343864
详细信息
固有亮度:
5
最大亮度:
2.5
卫星平台:
Starlink v1.5
覆盖范围:
全球
运营商:
太空探索技术公司
运营商所在国:
美国
制造商(研发单位):
太空探索技术公司
制造商所在国:
美国
使用方式:
暂无
卫星简介
星链(Starlink)计划是由太空探索技术公司(SpaceX)提出的一个巨型低轨卫星互联网星座项目,计划在2019年至2024年间在太空搭建由约1.2万颗卫星组成的“星链”网络,其中1584颗将部署在地球上空550千米处的近地轨道,并从2020年开始工作。该卫星仍在工作。
2D轨道图
3D轨道图
轨道高度分析图
轨道倾角分析图
轨道综合分析图
查看轨道综合分析图
交会数据列表
事件ID 空间交会对象 最接近时刻(TCA) 交会距离 交会风险概率(CRP) 交会风险指数(CRI) 操作
CDM_260907-190305-226506-520021
2026-09-07T
19:03:17+0000
0.407 km
远距离
1.232141E-4 高风险 0.77
CDM_260906-233505-226506-785022
2026-09-06T
23:35:37+0000
0.653 km
远距离
6.758466E-5 中风险 0.72
CDM_260906-115205-226506-785022
2026-09-06T
11:52:10+0000
0.683 km
远距离
5.909419E-5 中风险 0.7
CDM_260906-001005-226505-719623
2026-09-06T
00:10:24+0000
1.701 km
极远距离
3.052541E-6 低风险 0.45
CDM_260906-101805-226506-785022
2026-09-06T
10:18:23+0000
1.754 km
极远距离
2.677621E-6 低风险 0.44
CDM_260907-084905-226506-609621
2026-09-07T
08:49:57+0000
1.574 km
极远距离
1.789245E-6 低风险 0.4
CDM_260907-111005-226506-609621
2026-09-07T
11:10:38+0000
1.843 km
极远距离
1.169476E-6 低风险 0.36
CDM_260907-010905-226506-785021
2026-09-07T
01:09:25+0000
2.678 km
极远距离
1.069433E-6 低风险 0.36
CDM_260907-093605-226506-609621
2026-09-07T
09:36:50+0000
2.139 km
极远距离
8.366088E-7 极低风险 0.33
CDM_260907-071605-226506-609621
2026-09-07T
07:16:09+0000
2.575 km
极远距离
6.074966E-7 极低风险 0.31